Time,TemperatureF,DewpointF,PressureIn,WindDirection,WindDirectionDegrees,WindSpeedMPH,WindSpeedGustMPH,Humidity,HourlyPrecipIn,Conditions,Clouds,dailyrainin,SoftwareType,DateUTC
2013-10-04 15:30:00,85.8,77.8,29.91,SE,135,0.0,3.0,77,0.00,,---,0.01,VWS V14.01,2013-10-04 20:30:00,
2013-10-04 16:12:00,84.1,77.6,29.92,SSE,159,0.0,0.0,81,0.00,,---,0.01,VWS V14.01,2013-10-04 21:12:00,
2013-10-04 16:17:00,83.7,77.6,29.92,SE,138,0.0,2.0,82,0.00,,---,0.01,VWS V14.01,2013-10-04 21:17:00,
2013-10-04 16:22:00,83.6,77.5,29.92,SW,225,0.0,2.0,82,0.00,,---,0.01,VWS V14.01,2013-10-04 21:22:00,
2013-10-04 16:27:00,83.6,77.2,29.92,SSW,211,0.0,2.0,81,0.00,,---,0.01,VWS V14.01,2013-10-04 21:27:00,
2013-10-04 16:32:00,83.4,76.6,29.92,SSW,203,0.0,2.0,80,0.00,,---,0.01,VWS V14.01,2013-10-04 21:32:00,
2013-10-04 16:37:00,83.2,77.1,29.92,SE,132,0.0,2.0,82,0.00,,---,0.01,VWS V14.01,2013-10-04 21:37:00,
2013-10-04 16:42:00,83.0,76.6,29.92,SE,136,0.0,2.0,81,0.00,,---,0.01,VWS V14.01,2013-10-04 21:42:00,
2013-10-04 16:47:00,82.8,76.8,29.92,SSW,208,0.0,2.0,82,0.00,,---,0.01,VWS V14.01,2013-10-04 21:47:00,
2013-10-04 16:52:00,82.7,76.3,29.92,SW,228,0.0,2.0,81,0.00,,---,0.01,VWS V14.01,2013-10-04 21:52:00,
2013-10-04 16:57:00,82.5,76.4,29.92,South,177,0.0,2.0,82,0.00,,---,0.01,VWS V14.01,2013-10-04 21:57:00,
2013-10-04 17:02:00,82.4,76.7,29.92,SW,221,0.0,1.0,83,0.00,,---,0.01,VWS V14.01,2013-10-04 22:02:00,
2013-10-04 17:07:00,82.3,76.6,29.92,SSW,201,0.0,1.0,83,0.00,,---,0.01,VWS V14.01,2013-10-04 22:07:00,
2013-10-04 17:12:00,82.2,76.9,29.92,SSW,201,0.0,1.0,84,0.00,,---,0.01,VWS V14.01,2013-10-04 22:12:00,
2013-10-04 17:17:00,82.1,76.8,29.93,SSW,201,0.0,1.0,84,0.00,,---,0.01,VWS V14.01,2013-10-04 22:17:00,
2013-10-04 17:22:00,82.1,76.4,29.93,SSW,201,0.0,1.0,83,0.00,,---,0.01,VWS V14.01,2013-10-04 22:22:00,
2013-10-04 17:27:00,81.9,76.2,29.93,SSW,201,0.0,1.0,83,0.00,,---,0.01,VWS V14.01,2013-10-04 22:27:00,
2013-10-04 17:32:00,81.7,76.0,29.93,SSW,201,0.0,0.0,83,0.00,,---,0.01,VWS V14.01,2013-10-04 22:32:00,
2013-10-04 17:37:00,81.5,76.2,29.93,SSW,213,0.0,1.0,84,0.00,,---,0.01,VWS V14.01,2013-10-04 22:37:00,
2013-10-04 17:42:00,81.3,76.4,29.93,SSW,213,0.0,1.0,85,0.00,,---,0.01,VWS V14.01,2013-10-04 22:42:00,
2013-10-04 17:47:00,81.0,76.1,29.93,SW,214,0.0,1.0,85,0.00,,---,0.01,VWS V14.01,2013-10-04 22:47:00,
2013-10-04 17:52:00,80.8,76.6,29.93,SW,214,0.0,1.0,87,0.00,,---,0.01,VWS V14.01,2013-10-04 22:52:00,
2013-10-04 17:57:00,80.5,76.6,29.93,SW,214,0.0,1.0,88,0.00,,---,0.01,VWS V14.01,2013-10-04 22:57:00,
2013-10-04 18:01:00,80.1,76.6,29.93,SW,215,0.0,0.0,89,0.00,,---,0.01,VWS V14.01,2013-10-04 23:01:00,
2013-10-04 18:06:00,79.7,76.5,29.93,SW,214,0.0,0.0,90,0.00,,---,0.01,VWS V14.01,2013-10-04 23:06:00,
2013-10-04 18:11:00,79.4,76.2,29.93,SW,214,0.0,0.0,90,0.00,,---,0.01,VWS V14.01,2013-10-04 23:11:00,
2013-10-04 18:16:00,79.0,76.2,29.93,SW,214,0.0,0.0,91,0.00,,---,0.01,VWS V14.01,2013-10-04 23:16:00,
2013-10-04 18:21:00,78.6,76.1,29.93,SW,214,0.0,0.0,92,0.00,,---,0.01,VWS V14.01,2013-10-04 23:21:00,
2013-10-04 18:26:00,78.3,75.8,29.93,SW,215,0.0,0.0,92,0.00,,---,0.01,VWS V14.01,2013-10-04 23:26:00,
2013-10-04 18:31:00,78.0,75.8,29.93,SW,214,0.0,0.0,93,0.00,,---,0.01,VWS V14.01,2013-10-04 23:31:00,
2013-10-04 18:36:00,77.7,75.5,29.93,SW,214,0.0,0.0,93,0.00,,---,0.01,VWS V14.01,2013-10-04 23:36:00,
2013-10-04 18:41:00,77.4,75.5,29.93,SW,215,0.0,0.0,94,0.00,,---,0.01,VWS V14.01,2013-10-04 23:41:00,
2013-10-04 18:46:00,77.1,75.2,29.93,SW,214,0.0,0.0,94,0.00,,---,0.01,VWS V14.01,2013-10-04 23:46:00,
2013-10-04 18:51:00,76.8,74.9,29.93,SW,214,0.0,0.0,94,0.00,,---,0.01,VWS V14.01,2013-10-04 23:51:00,
2013-10-04 18:56:00,76.6,74.8,29.93,SW,214,0.0,0.0,94,0.00,,---,0.01,VWS V14.01,2013-10-04 23:56:00,
2013-10-04 19:01:00,76.3,74.8,29.93,SW,214,0.0,0.0,95,0.00,,---,0.01,VWS V14.01,2013-10-05 00:01:00,
2013-10-04 19:06:00,76.2,74.7,29.93,SW,214,0.0,0.0,95,0.00,,---,0.01,VWS V14.01,2013-10-05 00:06:00,
2013-10-04 19:11:00,76.1,74.6,29.93,SW,215,0.0,0.0,95,0.00,,---,0.01,VWS V14.01,2013-10-05 00:11:00,
2013-10-04 19:16:00,75.9,74.7,29.93,SW,215,0.0,0.0,96,0.00,,---,0.01,VWS V14.01,2013-10-05 00:16:00,
2013-10-04 19:21:00,75.8,74.6,29.93,SW,215,0.0,0.0,96,0.00,,---,0.01,VWS V14.01,2013-10-05 00:21:00,
2013-10-04 19:26:00,75.6,74.4,29.94,SW,214,0.0,0.0,96,0.00,,---,0.01,VWS V14.01,2013-10-05 00:26:00,
2013-10-04 19:31:00,75.4,74.2,29.94,SW,214,0.0,0.0,96,0.00,,---,0.01,VWS V14.01,2013-10-05 00:31:00,
2013-10-04 19:36:00,75.3,74.1,29.94,SW,214,0.0,0.0,96,0.00,,---,0.01,VWS V14.01,2013-10-05 00:36:00,
2013-10-04 19:41:00,75.3,74.1,29.94,SW,214,0.0,0.0,96,0.00,,---,0.01,VWS V14.01,2013-10-05 00:41:00,
2013-10-04 19:46:00,75.1,73.9,29.94,SW,215,0.0,0.0,96,0.00,,---,0.01,VWS V14.01,2013-10-05 00:46:00,
2013-10-04 19:51:00,75.1,73.9,29.94,SW,214,0.0,0.0,96,0.00,,---,0.01,VWS V14.01,2013-10-05 00:51:00,
2013-10-04 19:56:00,75.0,74.1,29.94,SW,214,0.0,0.0,97,0.00,,---,0.01,VWS V14.01,2013-10-05 00:56:00,
2013-10-04 20:01:00,74.9,74.0,29.94,SW,214,0.0,0.0,97,0.00,,---,0.01,VWS V14.01,2013-10-05 01:01:00,
2013-10-04 20:06:00,74.8,73.9,29.94,SW,215,0.0,0.0,97,0.00,,---,0.01,VWS V14.01,2013-10-05 01:06:00,
2013-10-04 20:11:00,74.7,73.8,29.94,SW,214,0.0,0.0,97,0.00,,---,0.01,VWS V14.01,2013-10-05 01:11:00,
2013-10-04 20:16:00,74.5,73.6,29.94,SW,214,0.0,0.0,97,0.00,,---,0.01,VWS V14.01,2013-10-05 01:16:00,
2013-10-04 20:21:00,74.5,73.6,29.94,SW,214,0.0,0.0,97,0.00,,---,0.01,VWS V14.01,2013-10-05 01:21:00,
2013-10-04 20:26:00,74.4,73.5,29.95,SW,215,0.0,0.0,97,0.00,,---,0.01,VWS V14.01,2013-10-05 01:26:00,
2013-10-04 20:31:00,74.4,73.5,29.95,SW,215,0.0,0.0,97,0.00,,---,0.01,VWS V14.01,2013-10-05 01:31:00,
2013-10-04 20:36:00,74.3,73.4,29.94,SW,214,0.0,0.0,97,0.00,,---,0.01,VWS V14.01,2013-10-05 01:36:00,
2013-10-04 20:41:00,74.2,73.3,29.95,SW,214,0.0,0.0,97,0.00,,---,0.01,VWS V14.01,2013-10-05 01:41:00,
2013-10-04 20:46:00,74.1,73.2,29.95,SW,214,0.0,0.0,97,0.00,,---,0.01,VWS V14.01,2013-10-05 01:46:00,
2013-10-04 20:51:00,74.1,73.2,29.95,SW,215,0.0,0.0,97,0.00,,---,0.01,VWS V14.01,2013-10-05 01:51:00,
2013-10-04 20:56:00,74.0,73.1,29.95,SW,215,0.0,0.0,97,0.00,,---,0.01,VWS V14.01,2013-10-05 01:56:00,
2013-10-04 21:01:00,73.9,73.0,29.95,SW,215,0.0,0.0,97,0.00,,---,0.01,VWS V14.01,2013-10-05 02:01:00,
2013-10-04 21:06:00,73.9,73.0,29.95,SW,214,0.0,0.0,97,0.00,,---,0.01,VWS V14.01,2013-10-05 02:06:00,
2013-10-04 21:11:00,73.9,73.3,29.95,SW,215,0.0,0.0,98,0.00,,---,0.01,VWS V14.01,2013-10-05 02:11:00,
2013-10-04 21:16:00,73.9,73.3,29.95,SW,215,0.0,0.0,98,0.00,,---,0.01,VWS V14.01,2013-10-05 02:16:00,
2013-10-04 21:21:00,74.0,73.4,29.95,SW,214,0.0,0.0,98,0.00,,---,0.01,VWS V14.01,2013-10-05 02:21:00,
2013-10-04 21:26:00,74.0,73.4,29.95,SW,214,0.0,0.0,98,0.00,,---,0.01,VWS V14.01,2013-10-05 02:26:00,
2013-10-04 21:31:00,74.0,73.4,29.95,SW,214,0.0,0.0,98,0.00,,---,0.01,VWS V14.01,2013-10-05 02:31:00,
2013-10-04 21:36:00,74.1,73.5,29.95,SW,215,0.0,0.0,98,0.00,,---,0.01,VWS V14.01,2013-10-05 02:36:00,
2013-10-04 21:41:00,74.2,73.6,29.95,SW,214,0.0,0.0,98,0.00,,---,0.01,VWS V14.01,2013-10-05 02:41:00,
2013-10-04 21:46:00,74.4,73.8,29.95,SW,215,0.0,0.0,98,0.00,,---,0.01,VWS V14.01,2013-10-05 02:46:00,
2013-10-04 21:51:00,74.3,73.7,29.95,SW,214,0.0,0.0,98,0.00,,---,0.01,VWS V14.01,2013-10-05 02:51:00,
2013-10-04 21:56:00,74.2,73.6,29.95,SW,214,0.0,0.0,98,0.00,,---,0.01,VWS V14.01,2013-10-05 02:56:00,
2013-10-04 22:01:00,74.1,73.5,29.95,SW,215,0.0,0.0,98,0.00,,---,0.01,VWS V14.01,2013-10-05 03:01:00,
2013-10-04 22:06:00,74.0,73.4,29.95,SW,214,0.0,0.0,98,0.00,,---,0.01,VWS V14.01,2013-10-05 03:06:00,
2013-10-04 22:11:00,73.9,73.3,29.95,SW,214,0.0,0.0,98,0.00,,---,0.01,VWS V14.01,2013-10-05 03:11:00,
2013-10-04 22:16:00,73.8,73.2,29.96,SW,215,0.0,0.0,98,0.00,,---,0.01,VWS V14.01,2013-10-05 03:16:00,
2013-10-04 22:21:00,73.7,73.1,29.95,SW,215,0.0,0.0,98,0.00,,---,0.01,VWS V14.01,2013-10-05 03:21:00,
2013-10-04 22:26:00,73.9,73.3,29.95,SW,214,0.0,0.0,98,0.00,,---,0.01,VWS V14.01,2013-10-05 03:26:00,
2013-10-04 22:31:00,74.1,73.5,29.95,SW,215,0.0,0.0,98,0.00,,---,0.01,VWS V14.01,2013-10-05 03:31:00,
2013-10-04 22:36:00,74.2,73.6,29.95,SW,214,0.0,0.0,98,0.00,,---,0.01,VWS V14.01,2013-10-05 03:36:00,
2013-10-04 22:41:00,74.1,73.5,29.95,SW,214,0.0,0.0,98,0.00,,---,0.01,VWS V14.01,2013-10-05 03:41:00,
2013-10-04 22:46:00,73.9,73.3,29.96,SW,214,0.0,0.0,98,0.00,,---,0.01,VWS V14.01,2013-10-05 03:46:00,
2013-10-04 22:51:00,73.7,73.1,29.95,SW,215,0.0,0.0,98,0.00,,---,0.01,VWS V14.01,2013-10-05 03:51:00,
2013-10-04 22:56:00,73.7,73.1,29.95,SW,215,0.0,0.0,98,0.00,,---,0.01,VWS V14.01,2013-10-05 03:56:00,
2013-10-04 23:01:00,73.6,73.0,29.95,SW,214,0.0,0.0,98,0.00,,---,0.01,VWS V14.01,2013-10-05 04:01:00,
2013-10-04 23:06:00,73.6,73.0,29.95,SW,214,0.0,0.0,98,0.00,,---,0.01,VWS V14.01,2013-10-05 04:06:00,
2013-10-04 23:11:00,73.5,72.9,29.95,SW,214,0.0,0.0,98,0.00,,---,0.01,VWS V14.01,2013-10-05 04:11:00,
2013-10-04 23:16:00,73.4,72.8,29.95,SW,214,0.0,0.0,98,0.00,,---,0.01,VWS V14.01,2013-10-05 04:16:00,
2013-10-04 23:21:00,73.3,72.7,29.95,SW,214,0.0,0.0,98,0.00,,---,0.01,VWS V14.01,2013-10-05 04:21:00,
2013-10-04 23:26:00,73.2,72.6,29.95,SW,215,0.0,0.0,98,0.00,,---,0.01,VWS V14.01,2013-10-05 04:26:00,
2013-10-04 23:31:00,73.3,72.7,29.94,SW,215,0.0,0.0,98,0.00,,---,0.01,VWS V14.01,2013-10-05 04:31:00,
2013-10-04 23:36:00,73.3,72.7,29.94,SW,214,0.0,0.0,98,0.00,,---,0.01,VWS V14.01,2013-10-05 04:36:00,
2013-10-04 23:41:00,73.2,72.9,29.94,SW,214,0.0,0.0,99,0.00,,---,0.01,VWS V14.01,2013-10-05 04:41:00,
2013-10-04 23:46:00,73.3,73.0,29.94,SW,214,0.0,0.0,99,0.00,,---,0.01,VWS V14.01,2013-10-05 04:46:00,
2013-10-04 23:51:00,73.3,73.0,29.94,SW,215,0.0,0.0,99,0.00,,---,0.01,VWS V14.01,2013-10-05 04:51:00,
2013-10-04 23:56:00,73.5,73.2,29.94,SW,215,0.0,0.0,99,0.00,,---,0.01,VWS V14.01,2013-10-05 04:56:00,